Flag for Czech Republic Weather past 2 weeks in Brno, Czech Republic

Now
55 °F

Passing clouds.


Feels Like: 55 °F
Forecast: 40 / 54 °F
Wind: 2 mph from Northeast

Location: Brno / Turany

Current Time: Oct 21, 2014 at 11:59:39 PM

Latest Report: Oct 21, 2014 at 10:00 PM


Visibility: 16 mi

Pressure: 29.66 "Hg

Humidity: 89%

Dew point: 52 °F

Location of BrnoLocation

Historic Weather in Brno — Graph

°F

Brno temperature yesterday

Maximum temperature yesterday: 59 °F (at 4:00 PM)
Minimum temperature yesterday: 50 °F (at 8:00 AM)
Average temperature yesterday: 54 °F

Past Weeks' High & Low Weather Summary

 TemperatureHumidityPressure
High71 °F (Oct 12, 4:00 PM)99% (Oct 20, 4:00 AM)30.34 "Hg (Oct 20, 4:00 AM)
Low46 °F (Oct 15, 7:00 AM)53% (Oct 21, 3:00 PM)29.66 "Hg (Oct 21, 10:00 PM)
Average57 °F85%29.98 "Hg
* Reported Oct 6 10:00 PM — Oct 21 10:00 PM, Brno, Weather by CustomWeather, © 2014

Note: Actual official high and low records may vary slightly from our data, if they occured in-between our weather recording intervals... More about our weather records

Advertising

Brno weather history for previous 24 hours

 ConditionsComfort  
Time TempWeatherWind HumidityBarometerVisibility
10:00 PM
Oct 21
55 °FPassing clouds.2 mph89%29.66 "Hg16 mi
9:00 PM56 °FPassing clouds.3 mph87%29.68 "Hg16 mi
8:00 PM56 °FPassing clouds.2 mph76%29.71 "Hg16 mi
7:00 PM56 °FPassing clouds.5 mph77%29.73 "Hg19 mi
6:00 PM58 °FPassing clouds.3 mph69%29.74 "Hg25 mi
5:00 PM61 °FPartly sunny.3 mph66%29.75 "Hg25 mi
4:00 PM63 °FPartly sunny.6 mph57%29.77 "Hg19 mi
3:00 PM63 °FScattered clouds.5 mph53%29.79 "Hg22 mi
2:00 PM62 °FPartly sunny.5 mph57%29.83 "Hg22 mi
1:00 PM62 °FScattered clouds.5 mph58%29.85 "Hg22 mi
12:00 PM61 °FPartly sunny.3 mph69%29.88 "Hg22 mi
11:00 AM59 °FOvercast.3 mph73%29.90 "Hg12 mi
10:16 AM55 °FFog.2 mph85%29.91 "Hg5 mi
9:00 AM50 °FFog.2 mph95%29.92 "Hg1 mi
8:00 AM49 °FFog.2 mph97%29.93 "Hg7 mi
7:00 AM51 °FPassing clouds.1 mph95%29.91 "Hg16 mi
6:00 AM52 °FOvercast.2 mph95%29.91 "Hg9 mi
5:00 AM51 °FOvercast.1 mph97%29.92 "Hg7 mi
4:00 AM51 °FFog.1 mph98%29.93 "Hg4 mi
3:00 AM51 °FFog.1 mph98%29.93 "Hg3 mi
2:00 AM53 °FFog.3 mph98%29.95 "Hg5 mi
1:00 AM54 °FPassing clouds.2 mph97%29.95 "Hg6 mi
12:00 AM55 °FOvercast.2 mph97%29.95 "Hg6 mi
11:00 PM
Oct 20
55 °FOvercast.1 mph94%29.96 "Hg6 mi
Weather by CustomWeather, © 2014

See weather overviewHow to use our weather pages